Location: Irma
(52.9170°N, 111.2330°W)
Time: 05:06:31
(UTC-06:00)

Cosmos 1633 Rocket - Visible Passes

Search period start: 26 May 2017 00:00
Search period end: 05 June 2017 00:00
Orbit: 606 x 625 km, 82.5° (Epoch: 25 May)

Date Brightness Start Highest point End Pass type
(mag) Time Alt. Az. Time Alt. Az. Time Alt. Az.
26 May 4.8 03:41:03 10° SSE 03:44:48 28° E 03:48:33 10° NNE visible
27 May 4.0 03:56:48 10° SSE 04:00:58 46° E 04:05:10 10° NNE visible
28 May 5.9 02:39:17 10° E 02:40:14 11° E 02:41:12 10° ENE visible
28 May 3.2 04:12:52 10° S 04:17:14 78° E 04:21:36 10° NNE visible
29 May 5.5 02:53:23 10° SE 02:56:15 17° E 02:59:07 10° NE visible
30 May 4.8 03:08:39 10° SSE 03:12:20 27° E 03:16:01 10° NNE visible
31 May 4.0 03:24:22 10° SSE 03:28:30 44° E 03:32:40 10° NNE visible
01 Jun 5.8 02:07:20 10° E 02:07:48 10° ENE 02:08:15 10° ENE visible
01 Jun 3.2 03:40:25 10° S 03:44:46 75° E 03:49:07 10° NNE visible
02 Jun 5.4 02:21:02 10° ESE 02:23:48 17° E 02:26:34 10° NE visible
02 Jun 3.1 03:56:46 10° SSW 04:01:06 66° WNW 04:05:26 10° N visible
03 Jun 4.7 02:36:15 10° SE 02:39:53 26° E 02:43:31 10° NNE visible
03 Jun 3.8 04:13:24 10° SW 04:17:31 40° WNW 04:21:39 10° N visible
04 Jun 4.0 02:52:11 11° SSE 02:56:02 43° E 03:00:10 10° NNE visible
